Terminal Aerodrome Forecast
Issued by NWS

Home | Current Version | Previous Version | Text Only | Print | Product List | Glossary On
Versions: 1 2 3 4 5 6 7 8 9 10 11 12
000
FTUS45 KPSR 241720
TAFBLH
TAF
KBLH 241720Z 2418/2518 VRB05KT P6SM SCT250
     FM250700 35005KT P6SM FEW250
     FM251400 VRB04KT P6SM FEW250=

USA.gov is the U.S. government's official web portal to all federal, state and local government web resources and services.